[[{"header":{"parameterUnit":"m.s-1","parameterCategory":1,"la1":30.2991,"la2":30.254,"lo1":-89.0895,"lo2":-89.0444,"dy":0.0017,"dx":0.0017,"nx":28,"ny":28,"refTime":"2024-06-10T09:00:00:Z","depth":0,"parameterNumber":2,"parameterNumberName":"U-component_of_WINDS"},"data":[0,0,0,0,0,0,0,0,0,0,0,0,0,0,0,0,0,0,0,0,0,0,0,0,0,0,0,0,0,0,0,0,0,0,0,0,0,0,0,0,0,0,0,0,0,0,0,0,0,0,0,0,0,0,0,0,0,0,0.2205,0.2204,0,0.2141,0.214,0.2139,0.2106,0.2106,0.2106,0.2106,0.2038,0.2036,0.2035,0,0,0,0,0,0,0,0,0,0,0,0,0,0.2298,0.2296,0.2205,0.2204,0.2204,0.2141,0.214,0.2139,0.2106,0.2106,0.2106,0.2106,0.2039,0.2037,0.2035,0,0,0,0,0,0,0,0,0,0,0,0,0,0.2248,0.2296,0.2205,0.2179,0.2177,0.2141,0.214,0.2139,0.2106,0.2106,0.2106,0.2106,0.2039,0.2037,0.2034,0.2019,0,0,0.2026,0.2025,0,0,0,0,0,0,0,0,0.2251,0.2244,0.2184,0.2181,0.2178,0.2131,0.2148,0.2099,0.2106,0.2133,0.2106,0.2106,0.2069,0.2064,0.2052,0.2016,0.2013,0.2026,0.2024,0.2023,0.2022,0,0,0,0,0,0,0,0.2254,0.2247,0.218,0.2183,0.2179,0.2171,0.2164,0.2138,0.2102,0.213,0.2128,0.2121,0.2067,0.2055,0.205,0.2012,0.2026,0.2024,0.2022,0.2021,0.1961,0.1961,0,0,0,0,0,0,0.2262,0.225,0.2182,0.2178,0.2215,0.2169,0.2161,0.2146,0.2102,0.2095,0.2121,0.212,0.2059,0.2053,0.2048,0.2027,0.2023,0.2021,0.2019,0.1961,0.1961,0.1961,0,0,0,0,0,0,0.2264,0.2256,0.2184,0.2213,0.2203,0.2168,0.2151,0.2145,0.2132,0.2095,0.2088,0.2115,0.2059,0.2051,0.2027,0.2024,0.202,0.2017,0.1961,0.1961,0.1961,0.1986,0,0,0,0,0,0,0.2267,0.2257,0.2251,0.2213,0.2202,0.2165,0.2151,0.2144,0.2128,0.2126,0.2087,0.2081,0.2058,0.2031,0.2024,0.2021,0.2015,0.1961,0.1961,0.1961,0.1985,0.1987,0.1988,0,0,0,0,0,0.227,0.226,0.2251,0.2243,0.2194,0.2165,0.2158,0.2133,0.2128,0.2122,0.2098,0.2082,0.2026,0.2029,0.2021,0.2016,0.1961,0.1961,0.1961,0.1984,0.1986,0.1988,0,0,0,0,0,0,0.2298,0.2255,0.2244,0.2222,0.2197,0.2159,0.215,0.2136,0.2111,0.211,0.2079,0.2071,0.2049,0.203,0.2034,0.2,0.1992,0.199,0.2013,0.2014,0.2016,0.202,0.2013,0,0,0,0,0,0.2302,0.2282,0.2245,0.2229,0.2217,0.2186,0.2172,0.2155,0.2128,0.2117,0.2092,0.2066,0.2042,0.2027,0.2003,0.1983,0.1974,0.1976,0.1977,0.1979,0.1978,0.1965,0.1966,0.1961,0.1961,0.1961,0,0,0.2308,0.2282,0.2272,0.2234,0.2213,0.2193,0.2177,0.2157,0.2141,0.2114,0.2089,0.207,0.2039,0.2016,0.2005,0.2,0.1977,0.1979,0.198,0.1978,0.1965,0.1966,0.1966,0.1961,0.1961,0.1961,0,0,0.231,0.2289,0.2273,0.2253,0.2222,0.2201,0.2198,0.2162,0.2148,0.2123,0.2103,0.2084,0.2044,0.2023,0.2007,0.2003,0.1987,0.1996,0.2004,0.1992,0.1993,0.1993,0.1991,0.1991,0.1995,0.1995,0.1995,0,0.2323,0.2292,0.2267,0.2248,0.2232,0.2207,0.2191,0.2172,0.2135,0.2124,0.2119,0.2069,0.2047,0.2019,0.2018,0.2006,0.2001,0.2,0.1995,0.1995,0.1994,0.1992,0.1992,0.1996,0.1996,0.1996,0.1996,0,0.2309,0.2288,0.2279,0.2245,0.2227,0.221,0.2182,0.2167,0.2152,0.2132,0.2107,0.208,0.205,0.2042,0.2027,0.2012,0.201,0.2001,0.1992,0.1997,0.1994,0.1993,0.1998,0.1998,0.1997,0.1997,0,0,0.2325,0.2278,0.2275,0.2259,0.2224,0.2207,0.2189,0.2161,0.2149,0.2124,0.2108,0.2075,0.2066,0.2048,0.203,0.202,0.2019,0.2012,0.2011,0.2014,0.2001,0.2009,0.2008,0.2009,0.2009,0.2009,0.2004,0,0.2322,0.2288,0.2265,0.224,0.2221,0.2198,0.2182,0.2158,0.214,0.212,0.2099,0.2076,0.2066,0.2055,0.2045,0.2022,0.2016,0.2022,0.1993,0.1992,0.2001,0.2007,0.2014,0.2011,0.2003,0.2003,0.2003,0,0.2313,0.2291,0.2264,0.2231,0.2222,0.2208,0.2181,0.2163,0.2136,0.2123,0.2104,0.2086,0.2065,0.2059,0.203,0.2034,0.2021,0.2008,0.2008,0.2003,0.1997,0.2002,0.2009,0.2009,0.2001,0.2001,0.2001,0,0.2328,0.229,0.227,0.2257,0.2218,0.2209,0.2192,0.2165,0.215,0.2127,0.2116,0.209,0.2076,0.2056,0.2032,0.203,0.2005,0.1997,0.1993,0.1994,0.1988,0.1989,0.1993,0.1981,0.1981,0.1981,0.1981,0,0.2326,0.2311,0.2276,0.2263,0.2245,0.2219,0.2202,0.2183,0.216,0.2142,0.2121,0.2106,0.2075,0.2055,0.2036,0.2015,0.2008,0.1997,0.1992,0.1998,0.2,0.1989,0.1988,0.1981,0.1981,0.1981,0.1981,0,0.2339,0.2315,0.2291,0.2257,0.2248,0.2236,0.2207,0.2193,0.2174,0.2153,0.2146,0.2116,0.2092,0.2066,0.2033,0.202,0.2,0.1993,0.2009,0.2006,0.2003,0.2004,0.2,0.1998,0.1989,0.1989,0.1989,0,0.2339,0.2327,0.2292,0.228,0.2264,0.2244,0.2229,0.2203,0.2188,0.2157,0.2147,0.2122,0.21,0.2063,0.2038,0.2013,0.2005,0.2005,0.2,0.2008,0.2004,0.2005,0.2003,0.2006,0.2006,0.2006,0.2007,0,0.2343,0.2332,0.2311,0.2286,0.2269,0.2248,0.2226,0.2217,0.2187,0.2172,0.2147,0.2131,0.2098,0.2073,0.2045,0.2027,0.2012,0.2009,0.2006,0.2012,0.2022,0.2017,0.2012,0.2008,0.2008,0.2008,0.2008,0.2008,0.2349,0.2337,0.2311,0.2289,0.227,0.225,0.2236,0.2216,0.2195,0.2167,0.2153,0.2129,0.2103,0.2064,0.2047,0.2027,0.2022,0.2019,0.2018,0.2017,0.2019,0.2026,0.2022,0.2022,0.2022,0.2022,0.2022,0,0.235,0.2333,0.2313,0.2284,0.2266,0.2255,0.223,0.2216,0.2196,0.2173,0.2152,0.2125,0.2101,0.2074,0.2048,0.2038,0.203,0.2032,0.2032,0.2028,0.2025,0.2029,0.2039,0.2039,0.2039,0.2039,0.2039,0.2039,0.2349,0.2329,0.2315,0.2285,0.2267,0.2244,0.2231,0.2213,0.2195,0.2165,0.2145,0.2128,0.2104,0.2076,0.2054,0.2047,0.2038,0.2042,0.2032,0.203,0.2028,0.2027,0.2031,0.204,0.204,0.2037,0.2037,0.2037]},{"header":{"parameterUnit":"m.s-1","parameterCategory":1,"la1":30.2991,"la2":30.254,"lo1":-89.0895,"lo2":-89.0444,"dy":0.0017,"dx":0.0017,"nx":28,"ny":28,"refTime":"2024-06-10T09:00:00:Z","depth":0,"parameterNumber":3,"parameterNumberName":"V-component_of_WINDS"},"data":[0,0,0,0,0,0,0,0,0,0,0,0,0,0,0,0,0,0,0,0,0,0,0,0,0,0,0,0,0,0,0,0,0,0,0,0,0,0,0,0,0,0,0,0,0,0,0,0,0,0,0,0,0,0,0,0,0,0,-0.9308,-0.9309,0,-0.9438,-0.944,-0.9441,-0.9516,-0.9516,-0.9516,-0.9517,-0.9651,-0.9654,-0.9658,0,0,0,0,0,0,0,0,0,0,0,0,0,-0.9122,-0.9125,-0.9307,-0.9309,-0.9311,-0.9438,-0.944,-0.9442,-0.9516,-0.9516,-0.9516,-0.9517,-0.965,-0.9654,-0.9658,0,0,0,0,0,0,0,0,0,0,0,0,0,-0.9223,-0.9126,-0.9307,-0.9363,-0.9369,-0.9438,-0.944,-0.9442,-0.9516,-0.9516,-0.9516,-0.9517,-0.9649,-0.9654,-0.9658,-0.9682,0,0,-0.9674,-0.9676,0,0,0,0,0,0,0,0,-0.9217,-0.923,-0.9353,-0.9359,-0.9366,-0.9461,-0.9424,-0.9523,-0.9516,-0.946,-0.9517,-0.9517,-0.9588,-0.9598,-0.9621,-0.9688,-0.9694,-0.9674,-0.9677,-0.9679,-0.9681,0,0,0,0,0,0,0,-0.921,-0.9224,-0.9359,-0.9355,-0.9363,-0.9382,-0.9396,-0.9443,-0.952,-0.9465,-0.9471,-0.9485,-0.9591,-0.9616,-0.9625,-0.9696,-0.9674,-0.9679,-0.9682,-0.9684,-0.9789,-0.9788,0,0,0,0,0,0,-0.9194,-0.9218,-0.9355,-0.9363,-0.9291,-0.9385,-0.9401,-0.943,-0.952,-0.9534,-0.9485,-0.9488,-0.9608,-0.9619,-0.963,-0.9663,-0.9679,-0.9684,-0.9687,-0.9789,-0.9788,-0.9788,0,0,0,0,0,0,-0.919,-0.9206,-0.935,-0.9292,-0.9312,-0.9388,-0.942,-0.9433,-0.9458,-0.9535,-0.9549,-0.9496,-0.9608,-0.9623,-0.9668,-0.9669,-0.9686,-0.9691,-0.9789,-0.9789,-0.9788,-0.973,0,0,0,0,0,0,-0.9184,-0.9204,-0.9213,-0.9292,-0.9315,-0.9385,-0.942,-0.9435,-0.9466,-0.9472,-0.9549,-0.9562,-0.961,-0.966,-0.9673,-0.9676,-0.9695,-0.9789,-0.9789,-0.9788,-0.9732,-0.9727,-0.9723,0,0,0,0,0,-0.9177,-0.9191,-0.9213,-0.9229,-0.9328,-0.9385,-0.9398,-0.9453,-0.9466,-0.9476,-0.9526,-0.956,-0.9667,-0.9664,-0.968,-0.9684,-0.9789,-0.9789,-0.9788,-0.9734,-0.9728,-0.9724,0,0,0,0,0,0,-0.911,-0.9203,-0.9228,-0.9268,-0.9318,-0.9398,-0.9412,-0.9445,-0.9493,-0.9496,-0.9562,-0.9579,-0.9618,-0.9656,-0.9651,-0.9711,-0.9732,-0.9734,-0.9685,-0.9681,-0.9676,-0.9666,-0.9699,0,0,0,0,0,-0.91,-0.9139,-0.9217,-0.9245,-0.9269,-0.9336,-0.9363,-0.94,-0.9455,-0.9477,-0.953,-0.9582,-0.9628,-0.9656,-0.9703,-0.9738,-0.9756,-0.9748,-0.9744,-0.974,-0.9742,-0.9763,-0.9761,-0.9787,-0.9787,-0.9787,0,0,-0.908,-0.9135,-0.9155,-0.9233,-0.9276,-0.9315,-0.9353,-0.9393,-0.9422,-0.9483,-0.9529,-0.957,-0.9633,-0.9673,-0.9693,-0.9706,-0.9739,-0.974,-0.9736,-0.974,-0.9763,-0.976,-0.9758,-0.9786,-0.9786,-0.9786,0,0,-0.9062,-0.9107,-0.9135,-0.9178,-0.9244,-0.9288,-0.9295,-0.937,-0.9399,-0.9446,-0.9493,-0.9529,-0.9606,-0.9649,-0.9681,-0.968,-0.9713,-0.9693,-0.9671,-0.9691,-0.9689,-0.9688,-0.9687,-0.9686,-0.9694,-0.9694,-0.9694,0,-0.9028,-0.9088,-0.9145,-0.9182,-0.9215,-0.9272,-0.9301,-0.934,-0.9417,-0.9439,-0.9452,-0.955,-0.9596,-0.9647,-0.9647,-0.9671,-0.9681,-0.9684,-0.9685,-0.9684,-0.9684,-0.9684,-0.9684,-0.9691,-0.9691,-0.9692,-0.9692,0,-0.9043,-0.9084,-0.9099,-0.9171,-0.9206,-0.9239,-0.9302,-0.933,-0.9365,-0.9408,-0.9455,-0.9513,-0.9572,-0.9587,-0.9621,-0.9643,-0.9649,-0.9672,-0.9694,-0.9677,-0.9679,-0.9679,-0.9687,-0.9688,-0.9689,-0.969,0,0,-0.8986,-0.909,-0.9095,-0.9129,-0.9205,-0.9238,-0.9274,-0.9331,-0.9354,-0.9406,-0.9437,-0.9501,-0.9524,-0.956,-0.9599,-0.9617,-0.9613,-0.9639,-0.9641,-0.9632,-0.9641,-0.9622,-0.9621,-0.9635,-0.9636,-0.9636,-0.9636,0,-0.8979,-0.9045,-0.9098,-0.9144,-0.9183,-0.9238,-0.9269,-0.9319,-0.9361,-0.94,-0.9446,-0.9491,-0.9517,-0.9539,-0.9559,-0.9609,-0.9615,-0.961,-0.9665,-0.9667,-0.9647,-0.9622,-0.9603,-0.9599,-0.9636,-0.9637,-0.9637,0,-0.8979,-0.9028,-0.9078,-0.9151,-0.9169,-0.9196,-0.9253,-0.929,-0.9349,-0.9378,-0.9418,-0.9459,-0.95,-0.9518,-0.9574,-0.9569,-0.9596,-0.9623,-0.9625,-0.9632,-0.965,-0.9628,-0.96,-0.9599,-0.9638,-0.9638,-0.9638,0,-0.8932,-0.9011,-0.9051,-0.9078,-0.9165,-0.9182,-0.9219,-0.9278,-0.9309,-0.9359,-0.938,-0.9435,-0.9464,-0.9505,-0.9561,-0.9569,-0.9611,-0.9634,-0.9637,-0.9635,-0.9643,-0.9642,-0.9618,-0.966,-0.966,-0.966,-0.966,0,-0.8918,-0.8946,-0.9031,-0.9055,-0.9089,-0.915,-0.9182,-0.9224,-0.9276,-0.931,-0.9361,-0.9392,-0.9463,-0.9502,-0.9546,-0.9586,-0.9599,-0.9624,-0.9635,-0.9619,-0.9616,-0.9637,-0.9638,-0.966,-0.966,-0.966,-0.966,0,-0.8871,-0.8929,-0.8976,-0.9054,-0.9074,-0.9095,-0.9162,-0.9189,-0.9233,-0.9275,-0.9289,-0.9359,-0.9408,-0.9468,-0.9536,-0.9565,-0.9602,-0.9618,-0.9581,-0.9588,-0.9587,-0.9586,-0.9576,-0.9577,-0.9618,-0.9617,-0.9617,0,-0.8858,-0.8881,-0.8962,-0.8988,-0.9023,-0.9065,-0.9097,-0.9159,-0.919,-0.9259,-0.9277,-0.933,-0.9376,-0.9452,-0.9509,-0.9562,-0.958,-0.9573,-0.9589,-0.9572,-0.958,-0.9578,-0.9581,-0.9569,-0.9568,-0.9567,-0.9567,0,-0.8829,-0.8857,-0.8901,-0.8955,-0.8992,-0.9038,-0.9087,-0.9105,-0.9177,-0.921,-0.9261,-0.9296,-0.9366,-0.9418,-0.9478,-0.9517,-0.9554,-0.9562,-0.9565,-0.9549,-0.9526,-0.9538,-0.957,-0.9561,-0.9562,-0.9562,-0.9563,-0.9563,-0.8799,-0.8822,-0.8882,-0.893,-0.8973,-0.9016,-0.9045,-0.9093,-0.9137,-0.9198,-0.9232,-0.9282,-0.9341,-0.9426,-0.9463,-0.9503,-0.9516,-0.9521,-0.9522,-0.9522,-0.9518,-0.952,-0.9514,-0.9515,-0.9515,-0.9515,-0.9515,0,-0.8772,-0.8814,-0.8857,-0.8923,-0.896,-0.8992,-0.9047,-0.9077,-0.912,-0.9172,-0.9216,-0.9274,-0.9325,-0.9387,-0.9442,-0.9462,-0.9481,-0.9475,-0.9474,-0.9482,-0.9503,-0.9494,-0.9459,-0.9459,-0.9459,-0.9459,-0.9459,-0.9459,-0.8763,-0.8803,-0.8838,-0.8901,-0.8943,-0.8992,-0.902,-0.9061,-0.9103,-0.9166,-0.9208,-0.9248,-0.9304,-0.9364,-0.9412,-0.9429,-0.9447,-0.9436,-0.9458,-0.9476,-0.9481,-0.9485,-0.9477,-0.9439,-0.9439,-0.9434,-0.9434,-0.9434]}]]